| time (UTC) | temp C | wind direction | speed KPH | gust KPH | rain 1hr cm | rain 24hr cm | rain mn cm | humidity % | barometer mb |
| 20260906023104 | 13 | 329 | 0.0 | 4.8 | 0.00 | 0.18 | 0.03 | 59 | 1015.1 |
| 20260906022604 | 13 | 267 | 0.0 | 3.2 | 0.00 | 0.20 | 0.03 | 59 | 1015.1 |
| 20260906022104 | 14 | 283 | 0.0 | 4.8 | 0.00 | 0.20 | 0.03 | 59 | 1015.2 |
| 20260906021104 | 14 | 284 | 1.6 | 4.8 | 0.00 | 0.20 | 0.03 | 57 | 1015.1 |
| 20260906020605 | 14 | 306 | 1.6 | 4.8 | 0.00 | 0.20 | 0.03 | 57 | 1015.0 |
| 20260906020105 | 14 | 241 | 0.0 | 4.8 | 0.00 | 0.20 | 0.03 | 58 | 1015.0 |
| 20260906015604 | 14 | 331 | 3.2 | 8.0 | 0.00 | 0.20 | 0.03 | 57 | 1014.9 |
| 20260906015104 | 15 | 298 | 1.6 | 4.8 | 0.00 | 0.20 | 0.03 | 57 | 1014.8 |
| 20260906014604 | 15 | 328 | 3.2 | 14.5 | 0.00 | 0.20 | 0.03 | 56 | 1014.9 |
| 20260906014104 | 15 | 338 | 1.6 | 16.1 | 0.00 | 0.20 | 0.03 | 57 | 1014.9 |
| 20260906013604 | 15 | 325 | 3.2 | 9.7 | 0.00 | 0.20 | 0.03 | 56 | 1015.0 |
| 20260906013105 | 15 | 326 | 1.6 | 19.3 | 0.00 | 0.20 | 0.03 | 56 | 1014.8 |
| 20260906012604 | 15 | 302 | 1.6 | 4.8 | 0.00 | 0.20 | 0.03 | 54 | 1014.8 |
| 20260906012103 | 15 | 302 | 1.6 | 4.8 | 0.00 | 0.20 | 0.03 | 54 | 1014.9 |
| 20260906011604 | 15 | 321 | 0.0 | 4.8 | 0.00 | 0.20 | 0.03 | 54 | 1014.8 |
| 20260906010604 | 15 | 324 | 3.2 | 12.9 | 0.00 | 0.20 | 0.03 | 53 | 1014.9 |
| 20260906010104 | 15 | 328 | 3.2 | 12.9 | 0.00 | 0.20 | 0.03 | 53 | 1014.8 |
| 20260906005604 | 16 | 321 | 1.6 | 8.0 | 0.00 | 0.20 | 0.03 | 53 | 1014.8 |
| 20260906004604 | 16 | 328 | 3.2 | 8.0 | 0.00 | 0.20 | 0.03 | 54 | 1014.7 |
| 20260906003604 | 16 | 326 | 6.4 | 12.9 | 0.00 | 0.20 | 0.03 | 53 | 1014.6 |
| 20260906003104 | 16 | 337 | 1.6 | 4.8 | 0.00 | 0.20 | 0.03 | 55 | 1014.9 |
| 20260906002604 | 16 | 328 | 3.2 | 12.9 | 0.00 | 0.20 | 0.03 | 55 | 1014.9 |
| 20260906002104 | 15 | 311 | 1.6 | 9.7 | 0.00 | 0.20 | 0.03 | 54 | 1014.9 |
| 20260906001604 | 15 | 322 | 4.8 | 12.9 | 0.00 | 0.20 | 0.03 | 54 | 1014.9 |
| 20260906001104 | 16 | 330 | 3.2 | 8.0 | 0.00 | 0.20 | 0.03 | 54 | 1014.9 |
| 20260906000604 | 16 | 326 | 3.2 | 4.8 | 0.00 | 0.20 | 0.03 | 54 | 1014.9 |
| 20260905235604 | 16 | 327 | 3.2 | 4.8 | 0.00 | 0.20 | 0.03 | 53 | 1014.9 |
| 20260905235104 | 16 | 328 | 3.2 | 4.8 | 0.00 | 0.20 | 0.03 | 52 | 1014.9 |
| 20260905234605 | 16 | 328 | 6.4 | 16.1 | 0.00 | 0.20 | 0.03 | 51 | 1014.9 |
| 20260905234104 | 16 | 320 | 1.6 | 4.8 | 0.00 | 0.20 | 0.03 | 51 | 1014.8 |
| 20260905233604 | 16 | 318 | 1.6 | 4.8 | 0.00 | 0.20 | 0.03 | 50 | 1014.7 |
| 20260905233104 | 17 | 273 | 1.6 | 4.8 | 0.00 | 0.20 | 0.03 | 48 | 1014.8 |
| 20260905232604 | 17 | 340 | 0.0 | 0.0 | 0.00 | 0.20 | 0.03 | 44 | 1014.7 |
| 20260905232104 | 18 | 350 | 0.0 | 0.0 | 0.00 | 0.20 | 0.03 | 43 | 1014.6 |
| 20260905231604 | 18 | 350 | 0.0 | 0.0 | 0.00 | 0.20 | 0.03 | 42 | 1014.6 |
| 20260905231104 | 18 | 344 | 0.0 | 0.0 | 0.00 | 0.20 | 0.03 | 40 | 1014.6 |
| 20260905230105 | 18 | 334 | 0.0 | 0.0 | 0.00 | 0.20 | 0.03 | 40 | 1014.7 |
| 20260905225604 | 18 | 334 | 0.0 | 0.0 | 0.00 | 0.20 | 0.03 | 42 | 1014.7 |
| 20260905224604 | 18 | 121 | 0.0 | 0.0 | 0.00 | 0.20 | 0.03 | 41 | 1014.9 |
| 20260905224104 | 19 | 123 | 0.0 | 1.6 | 0.00 | 0.20 | 0.03 | 40 | 1014.9 |
| 20260905223605 | 18 | 139 | 0.0 | 1.6 | 0.00 | 0.20 | 0.03 | 40 | 1015.0 |
| 20260905223104 | 18 | 140 | 0.0 | 0.0 | 0.00 | 0.20 | 0.03 | 41 | 1015.0 |
| 20260905222604 | 18 | 140 | 0.0 | 0.0 | 0.00 | 0.20 | 0.03 | 39 | 1015.1 |
| 20260905222105 | 20 | 74 | 3.2 | 11.3 | 0.00 | 0.20 | 0.03 | 38 | 1015.1 |
| 20260905221604 | 19 | 93 | 1.6 | 4.8 | 0.00 | 0.20 | 0.03 | 40 | 1015.2 |
| 20260905221104 | 18 | 174 | 0.0 | 3.2 | 0.00 | 0.20 | 0.03 | 42 | 1015.3 |
| 20260905220604 | 19 | 167 | 0.0 | 0.0 | 0.00 | 0.23 | 0.03 | 39 | 1015.4 |
| 20260905220105 | 20 | 82 | 0.0 | 3.2 | 0.00 | 0.25 | 0.03 | 41 | 1015.4 |
| 20260905215604 | 19 | 128 | 0.0 | 3.2 | 0.00 | 0.30 | 0.03 | 41 | 1015.3 |
| 20260905215104 | 18 | 138 | 0.0 | 0.0 | 0.00 | 0.30 | 0.03 | 43 | 1015.3 |
| 20260905214104 | 19 | 142 | 0.0 | 4.8 | 0.00 | 0.33 | 0.03 | 41 | 1015.3 |
| 20260905213604 | 18 | 84 | 0.0 | 4.8 | 0.00 | 0.33 | 0.03 | 44 | 1015.3 |
| 20260905213104 | 18 | 59 | 0.0 | 0.0 | 0.00 | 0.33 | 0.03 | 44 | 1015.4 |
| 20260905212604 | 19 | 59 | 0.0 | 0.0 | 0.00 | 0.33 | 0.03 | 44 | 1015.4 |
| 20260905212104 | 18 | 58 | 0.0 | 8.0 | 0.00 | 0.33 | 0.03 | 45 | 1015.5 |
| 20260905211604 | 18 | 68 | 0.0 | 3.2 | 0.00 | 0.33 | 0.03 | 45 | 1015.5 |
| 20260905211104 | 18 | 67 | 1.6 | 4.8 | 0.00 | 0.33 | 0.03 | 46 | 1015.6 |
| 20260905210604 | 17 | 83 | 0.0 | 3.2 | 0.00 | 0.33 | 0.03 | 49 | 1015.7 |
| 20260905205604 | 16 | 96 | 0.0 | 0.0 | 0.00 | 0.33 | 0.03 | 51 | 1015.9 |
| 20260905205104 | 17 | 96 | 1.6 | 4.8 | 0.00 | 0.33 | 0.03 | 46 | 1015.9 |
| 20260905204604 | 17 | 149 | 0.0 | 0.0 | 0.00 | 0.33 | 0.03 | 48 | 1015.9 |
| 20260905203604 | 18 | 156 | 0.0 | 0.0 | 0.00 | 0.33 | 0.03 | 45 | 1016.1 |
| 20260905203104 | 17 | 96 | 0.0 | 4.8 | 0.00 | 0.33 | 0.03 | 46 | 1016.1 |
| 20260905202604 | 18 | 108 | 1.6 | 4.8 | 0.00 | 0.33 | 0.03 | 44 | 1016.2 |
| 20260905201604 | 17 | 350 | 0.0 | 4.8 | 0.00 | 0.33 | 0.03 | 49 | 1016.2 |
| 20260905201104 | 17 | 226 | 1.6 | 8.0 | 0.00 | 0.33 | 0.03 | 46 | 1016.2 |
| 20260905200604 | 17 | 117 | 0.0 | 4.8 | 0.00 | 0.33 | 0.03 | 45 | 1016.2 |
| 20260905195604 | 17 | 89 | 0.0 | 4.8 | 0.00 | 0.33 | 0.03 | 48 | 1016.2 |
| 20260905195104 | 17 | 101 | 0.0 | 4.8 | 0.00 | 0.33 | 0.03 | 48 | 1016.4 |
| 20260905194105 | 17 | 137 | 0.0 | 0.0 | 0.00 | 0.33 | 0.03 | 47 | 1016.5 |
| 20260905193605 | 17 | 122 | 0.0 | 3.2 | 0.00 | 0.33 | 0.03 | 49 | 1016.5 |
| 20260905193104 | 17 | 126 | 0.0 | 4.8 | 0.00 | 0.33 | 0.03 | 49 | 1016.6 |
| 20260905192604 | 17 | 211 | 0.0 | 4.8 | 0.00 | 0.33 | 0.03 | 49 | 1016.5 |
| 20260905190605 | 15 | 216 | 0.0 | 3.2 | 0.00 | 0.33 | 0.03 | 58 | 1016.9 |
| 20260905190104 | 15 | 216 | 0.0 | 1.6 | 0.00 | 0.33 | 0.03 | 57 | 1016.9 |
| 20260905185605 | 15 | 218 | 0.0 | 0.0 | 0.00 | 0.33 | 0.03 | 55 | 1016.9 |
| 20260905185104 | 15 | 221 | 0.0 | 0.0 | 0.00 | 0.33 | 0.03 | 56 | 1016.9 |
| 20260905183604 | 15 | 254 | 0.0 | 0.0 | 0.00 | 0.33 | 0.03 | 61 | 1017.2 |
| 20260905183104 | 15 | 254 | 0.0 | 0.0 | 0.00 | 0.33 | 0.03 | 61 | 1017.1 |
| 20260905182605 | 14 | 256 | 0.0 | 4.8 | 0.00 | 0.33 | 0.03 | 64 | 1017.2 |
| 20260905182104 | 15 | 196 | 0.0 | 3.2 | 0.00 | 0.33 | 0.03 | 63 | 1017.2 |
| 20260905181605 | 14 | 207 | 0.0 | 0.0 | 0.00 | 0.33 | 0.03 | 64 | 1017.4 |
| 20260905181104 | 14 | 209 | 0.0 | 3.2 | 0.00 | 0.33 | 0.03 | 63 | 1017.4 |
| 20260905180604 | 14 | 211 | 1.6 | 4.8 | 0.00 | 0.33 | 0.03 | 62 | 1017.5 |
| 20260905180104 | 14 | 143 | 0.0 | 3.2 | 0.00 | 0.33 | 0.03 | 64 | 1017.6 |
| 20260905175605 | 13 | 144 | 0.0 | 0.0 | 0.00 | 0.33 | 0.03 | 65 | 1017.6 |
| 20260905175104 | 13 | 140 | 0.0 | 0.0 | 0.00 | 0.33 | 0.03 | 66 | 1017.7 |
| 20260905174604 | 13 | 128 | 0.0 | 3.2 | 0.00 | 0.33 | 0.03 | 67 | 1017.7 |
| 20260905174104 | 13 | 160 | 0.0 | 1.6 | 0.00 | 0.33 | 0.03 | 69 | 1017.8 |
| 20260905173604 | 12 | 179 | 0.0 | 3.2 | 0.00 | 0.33 | 0.03 | 69 | 1017.8 |
| 20260905173105 | 12 | 177 | 1.6 | 4.8 | 0.00 | 0.33 | 0.03 | 70 | 1017.8 |
| 20260905172604 | 12 | 135 | 1.6 | 4.8 | 0.00 | 0.33 | 0.03 | 70 | 1017.8 |
| 20260905171604 | 12 | 164 | 0.0 | 0.0 | 0.00 | 0.33 | 0.03 | 74 | 1017.9 |
| 20260905170604 | 11 | 164 | 0.0 | 1.6 | 0.00 | 0.33 | 0.03 | 78 | 1017.9 |
| 20260905170104 | 11 | 165 | 0.0 | 0.0 | 0.00 | 0.33 | 0.03 | 80 | 1017.9 |
| 20260905165604 | 10 | 165 | 0.0 | 0.0 | 0.00 | 0.33 | 0.03 | 82 | 1017.8 |
| 20260905165104 | 10 | 165 | 0.0 | 1.6 | 0.00 | 0.33 | 0.03 | 84 | 1017.8 |
| 20260905164604 | 9 | 204 | 0.0 | 1.6 | 0.00 | 0.33 | 0.03 | 86 | 1017.8 |
| 20260905163604 | 8 | 207 | 0.0 | 0.0 | 0.00 | 0.33 | 0.03 | 88 | 1017.9 |
| 20260905163104 | 8 | 207 | 0.0 | 0.0 | 0.00 | 0.33 | 0.03 | 89 | 1018.0 |
| 20260905162605 | 8 | 207 | 0.0 | 0.0 | 0.00 | 0.33 | 0.03 | 90 | 1018.0 |
| 20260905161604 | 7 | 207 | 0.0 | 0.0 | 0.00 | 0.33 | 0.03 | 91 | 1017.9 |
| 20260905160104 | 7 | 213 | 0.0 | 0.0 | 0.00 | 0.33 | 0.03 | 91 | 1018.1 |
| 20260905155605 | 7 | 213 | 0.0 | 0.0 | 0.00 | 0.33 | 0.03 | 91 | 1018.0 |
| 20260905155103 | 7 | 215 | 0.0 | 0.0 | 0.00 | 0.33 | 0.03 | 91 | 1017.9 |
| 20260905154603 | 7 | 215 | 0.0 | 0.0 | 0.00 | 0.33 | 0.03 | 91 | 1018.0 |
| 20260905154103 | 6 | 215 | 0.0 | 0.0 | 0.00 | 0.33 | 0.03 | 92 | 1018.0 |
| 20260905153603 | 6 | 215 | 0.0 | 0.0 | 0.00 | 0.33 | 0.03 | 92 | 1018.0 |
| 20260905153103 | 6 | 215 | 0.0 | 0.0 | 0.00 | 0.33 | 0.03 | 92 | 1017.9 |
| 20260905152603 | 6 | 215 | 0.0 | 0.0 | 0.00 | 0.33 | 0.03 | 92 | 1018.1 |
| 20260905151603 | 6 | 215 | 0.0 | 0.0 | 0.00 | 0.33 | 0.03 | 92 | 1018.2 |
| 20260905151103 | 6 | 219 | 0.0 | 0.0 | 0.00 | 0.33 | 0.03 | 92 | 1018.2 |
| 20260905150603 | 6 | 220 | 0.0 | 0.0 | 0.00 | 0.33 | 0.03 | 92 | 1018.1 |
| 20260905145603 | 6 | 220 | 0.0 | 0.0 | 0.00 | 0.33 | 0.03 | 93 | 1018.2 |
| 20260905145102 | 6 | 220 | 0.0 | 1.6 | 0.00 | 0.33 | 0.03 | 93 | 1018.1 |
| 20260905144603 | 6 | 224 | 0.0 | 0.0 | 0.00 | 0.33 | 0.03 | 93 | 1018.1 |
| 20260905144103 | 6 | 225 | 0.0 | 1.6 | 0.00 | 0.33 | 0.03 | 93 | 1018.2 |
| 20260905143603 | 5 | 223 | 0.0 | 0.0 | 0.00 | 0.33 | 0.03 | 93 | 1018.1 |
| 20260905143102 | 5 | 219 | 0.0 | 4.8 | 0.00 | 0.33 | 0.03 | 93 | 1018.0 |
| 20260905142603 | 5 | 190 | 0.0 | 0.0 | 0.00 | 0.33 | 0.03 | 94 | 1017.9 |
| 20260905142103 | 5 | 190 | 0.0 | 0.0 | 0.00 | 0.33 | 0.03 | 93 | 1017.8 |
| 20260905141603 | 5 | 189 | 0.0 | 0.0 | 0.00 | 0.33 | 0.03 | 93 | 1017.7 |
| 20260905141103 | 5 | 189 | 0.0 | 0.0 | 0.00 | 0.33 | 0.03 | 93 | 1017.7 |
| 20260905140603 | 5 | 192 | 0.0 | 1.6 | 0.00 | 0.33 | 0.03 | 93 | 1017.6 |
| 20260905135603 | 5 | 190 | 0.0 | 0.0 | 0.00 | 0.33 | 0.03 | 94 | 1017.6 |
| 20260905135103 | 5 | 200 | 0.0 | 1.6 | 0.00 | 0.33 | 0.03 | 94 | 1017.6 |
| 20260905134603 | 5 | 206 | 0.0 | 0.0 | 0.00 | 0.33 | 0.03 | 94 | 1017.5 |
| 20260905134103 | 5 | 206 | 0.0 | 0.0 | 0.00 | 0.33 | 0.03 | 94 | 1017.5 |
| 20260905133603 | 5 | 206 | 0.0 | 0.0 | 0.00 | 0.33 | 0.03 | 93 | 1017.4 |
| 20260905133103 | 5 | 206 | 0.0 | 0.0 | 0.00 | 0.33 | 0.03 | 93 | 1017.4 |
| 20260905132603 | 6 | 206 | 0.0 | 0.0 | 0.00 | 0.33 | 0.03 | 93 | 1017.4 |
| 20260905132103 | 6 | 206 | 0.0 | 0.0 | 0.00 | 0.33 | 0.03 | 93 | 1017.4 |
| 20260905131103 | 6 | 206 | 0.0 | 0.0 | 0.00 | 0.33 | 0.03 | 93 | 1017.5 |
| 20260905130603 | 6 | 206 | 0.0 | 1.6 | 0.00 | 0.33 | 0.03 | 93 | 1017.4 |
| 20260905125603 | 6 | 207 | 0.0 | 4.8 | 0.00 | 0.33 | 0.03 | 93 | 1017.4 |
| 20260905125102 | 6 | 214 | 0.0 | 3.2 | 0.00 | 0.33 | 0.03 | 93 | 1017.4 |
| 20260905124603 | 6 | 241 | 0.0 | 0.0 | 0.00 | 0.33 | 0.03 | 94 | 1017.3 |
| 20260905123603 | 6 | 178 | 0.0 | 0.0 | 0.00 | 0.33 | 0.03 | 94 | 1017.4 |
| 20260905123103 | 6 | 177 | 0.0 | 0.0 | 0.00 | 0.33 | 0.03 | 94 | 1017.4 |
| 20260905122103 | 6 | 177 | 0.0 | 1.6 | 0.00 | 0.33 | 0.03 | 94 | 1017.5 |
| 20260905121603 | 6 | 177 | 0.0 | 1.6 | 0.00 | 0.33 | 0.03 | 94 | 1017.5 |
| 20260905120603 | 6 | 181 | 0.0 | 0.0 | 0.00 | 0.33 | 0.03 | 94 | 1017.5 |
| 20260905120103 | 6 | 181 | 0.0 | 0.0 | 0.00 | 0.33 | 0.03 | 94 | 1017.5 |
| 20260905115103 | 6 | 181 | 0.0 | 0.0 | 0.00 | 0.33 | 0.03 | 94 | 1017.5 |
| 20260905114603 | 6 | 181 | 0.0 | 0.0 | 0.00 | 0.33 | 0.03 | 94 | 1017.5 |
| 20260905113604 | 6 | 181 | 0.0 | 0.0 | 0.00 | 0.33 | 0.03 | 94 | 1017.4 |
| 20260905113103 | 6 | 181 | 0.0 | 0.0 | 0.00 | 0.33 | 0.03 | 94 | 1017.4 |
| 20260905112603 | 6 | 181 | 0.0 | 0.0 | 0.00 | 0.33 | 0.03 | 94 | 1017.3 |
| 20260905112103 | 6 | 181 | 0.0 | 0.0 | 0.00 | 0.33 | 0.03 | 94 | 1017.4 |
| 20260905111103 | 6 | 181 | 0.0 | 0.0 | 0.00 | 0.33 | 0.03 | 94 | 1017.5 |
| 20260905110602 | 6 | 181 | 0.0 | 1.6 | 0.00 | 0.33 | 0.03 | 94 | 1017.4 |
| 20260905105602 | 6 | 181 | 0.0 | 3.2 | 0.00 | 0.33 | 0.03 | 94 | 1017.6 |
| 20260905105103 | 6 | 188 | 0.0 | 0.0 | 0.00 | 0.33 | 0.03 | 94 | 1017.6 |
| 20260905104603 | 6 | 188 | 0.0 | 0.0 | 0.00 | 0.33 | 0.03 | 94 | 1017.6 |
| 20260905104103 | 6 | 188 | 0.0 | 0.0 | 0.00 | 0.33 | 0.03 | 94 | 1017.6 |
| 20260905103603 | 5 | 188 | 0.0 | 1.6 | 0.00 | 0.33 | 0.03 | 94 | 1017.6 |
| 20260905103103 | 6 | 246 | 0.0 | 0.0 | 0.00 | 0.33 | 0.03 | 94 | 1017.6 |
| 20260905102102 | 6 | 234 | 0.0 | 0.0 | 0.00 | 0.33 | 0.03 | 94 | 1017.5 |
| 20260905101603 | 6 | 235 | 0.0 | 0.0 | 0.00 | 0.33 | 0.03 | 94 | 1017.4 |
| 20260905101103 | 6 | 235 | 0.0 | 0.0 | 0.00 | 0.33 | 0.03 | 94 | 1017.5 |
| 20260905100603 | 6 | 235 | 0.0 | 0.0 | 0.00 | 0.33 | 0.03 | 95 | 1017.5 |
| 20260905100104 | 6 | 235 | 0.0 | 0.0 | 0.00 | 0.33 | 0.03 | 95 | 1017.5 |
| 20260905095603 | 6 | 235 | 0.0 | 0.0 | 0.00 | 0.33 | 0.03 | 95 | 1017.6 |
| 20260905094603 | 6 | 235 | 0.0 | 0.0 | 0.03 | 0.33 | 0.03 | 95 | 1017.5 |
| 20260905094103 | 6 | 243 | 0.0 | 0.0 | 0.03 | 0.33 | 0.03 | 95 | 1017.5 |
| 20260905093603 | 5 | 243 | 0.0 | 0.0 | 0.03 | 0.33 | 0.03 | 95 | 1017.5 |
| 20260905093103 | 5 | 243 | 0.0 | 1.6 | 0.03 | 0.33 | 0.03 | 95 | 1017.5 |
| 20260905092603 | 5 | 251 | 0.0 | 0.0 | 0.03 | 0.33 | 0.03 | 95 | 1017.5 |
| 20260905092103 | 5 | 251 | 0.0 | 4.8 | 0.03 | 0.33 | 0.03 | 95 | 1017.4 |
| 20260905091603 | 5 | 279 | 0.0 | 0.0 | 0.03 | 0.33 | 0.03 | 95 | 1017.4 |
| 20260905090603 | 5 | 281 | 0.0 | 1.6 | 0.03 | 0.33 | 0.03 | 95 | 1017.3 |
| 20260905090103 | 5 | 281 | 0.0 | 0.0 | 0.03 | 0.33 | 0.03 | 95 | 1017.3 |
| 20260905085103 | 5 | 289 | 0.0 | 4.8 | 0.00 | 0.30 | 0.00 | 95 | 1017.2 |
| 20260905084603 | 5 | 315 | 0.0 | 4.8 | 0.00 | 0.30 | 0.00 | 94 | 1017.1 |
| 20260905084103 | 5 | 315 | 0.0 | 0.0 | 0.00 | 0.30 | 0.00 | 94 | 1017.1 |
| 20260905083103 | 5 | 315 | 0.0 | 0.0 | 0.00 | 0.30 | 0.00 | 95 | 1017.2 |
| 20260905082603 | 5 | 315 | 0.0 | 0.0 | 0.00 | 0.30 | 0.00 | 95 | 1017.2 |
| 20260905082103 | 5 | 315 | 0.0 | 0.0 | 0.00 | 0.30 | 0.00 | 95 | 1017.0 |
| 20260905081603 | 5 | 315 | 0.0 | 0.0 | 0.00 | 0.30 | 0.00 | 95 | 1017.1 |
| 20260905080602 | 5 | 315 | 0.0 | 0.0 | 0.00 | 0.30 | 0.00 | 94 | 1016.9 |
| 20260905075603 | 5 | 315 | 0.0 | 0.0 | 0.00 | 0.30 | 0.00 | 94 | 1016.9 |
| 20260905074603 | 5 | 315 | 0.0 | 0.0 | 0.00 | 0.30 | 0.00 | 94 | 1016.9 |
| 20260905073603 | 5 | 315 | 0.0 | 0.0 | 0.00 | 0.30 | 0.00 | 94 | 1016.8 |
| 20260905073103 | 5 | 315 | 0.0 | 0.0 | 0.00 | 0.30 | 0.00 | 94 | 1016.6 |
| 20260905072603 | 5 | 315 | 0.0 | 0.0 | 0.00 | 0.30 | 0.00 | 94 | 1016.5 |
| 20260905072102 | 5 | 315 | 0.0 | 0.0 | 0.00 | 0.30 | 0.00 | 94 | 1016.5 |
| 20260905071603 | 5 | 315 | 0.0 | 0.0 | 0.00 | 0.30 | 0.00 | 94 | 1016.5 |
| 20260905071103 | 5 | 315 | 0.0 | 0.0 | 0.00 | 0.30 | 0.00 | 94 | 1016.4 |
| 20260905070603 | 5 | 315 | 0.0 | 0.0 | 0.00 | 0.30 | 0.00 | 94 | 1016.3 |
| 20260905070104 | 5 | 315 | 0.0 | 0.0 | 0.00 | 0.30 | 0.00 | 94 | 1016.4 |
| 20260905065603 | 5 | 315 | 0.0 | 0.0 | 0.00 | 0.30 | 0.30 | 94 | 1016.4 |
| 20260905065104 | 6 | 315 | 0.0 | 0.0 | 0.00 | 0.30 | 0.30 | 94 | 1016.4 |
| 20260905064603 | 6 | 315 | 0.0 | 0.0 | 0.00 | 0.30 | 0.30 | 94 | 1016.3 |
| 20260905064103 | 6 | 315 | 0.0 | 0.0 | 0.00 | 0.30 | 0.30 | 94 | 1016.0 |
| 20260905063603 | 6 | 315 | 0.0 | 0.0 | 0.00 | 0.30 | 0.30 | 94 | 1016.0 |
| 20260905063103 | 6 | 315 | 0.0 | 0.0 | 0.00 | 0.30 | 0.30 | 94 | 1016.1 |
| 20260905062603 | 6 | 315 | 0.0 | 0.0 | 0.00 | 0.30 | 0.30 | 94 | 1016.0 |
| 20260905061604 | 6 | 315 | 0.0 | 0.0 | 0.00 | 0.30 | 0.30 | 94 | 1016.0 |
| 20260905060103 | 7 | 315 | 0.0 | 0.0 | 0.00 | 0.30 | 0.30 | 94 | 1016.0 |
| 20260905055603 | 7 | 315 | 0.0 | 0.0 | 0.00 | 0.30 | 0.30 | 94 | 1015.9 |
| 20260905055103 | 7 | 315 | 0.0 | 0.0 | 0.00 | 0.30 | 0.30 | 94 | 1016.0 |
| 20260905054603 | 7 | 315 | 0.0 | 0.0 | 0.00 | 0.30 | 0.30 | 94 | 1016.0 |
| 20260905054103 | 7 | 315 | 0.0 | 0.0 | 0.00 | 0.30 | 0.30 | 94 | 1016.0 |
| 20260905053603 | 7 | 315 | 0.0 | 0.0 | 0.00 | 0.30 | 0.30 | 94 | 1016.1 |
| 20260905053102 | 7 | 315 | 0.0 | 0.0 | 0.00 | 0.30 | 0.30 | 94 | 1016.2 |
| 20260905052103 | 7 | 315 | 0.0 | 0.0 | 0.00 | 0.30 | 0.30 | 94 | 1016.2 |
| 20260905051603 | 7 | 315 | 0.0 | 0.0 | 0.00 | 0.30 | 0.30 | 94 | 1016.2 |
| 20260905051103 | 7 | 315 | 0.0 | 0.0 | 0.00 | 0.30 | 0.30 | 94 | 1016.1 |
| 20260905050603 | 7 | 315 | 0.0 | 0.0 | 0.00 | 0.30 | 0.30 | 93 | 1016.0 |
| 20260905050103 | 7 | 315 | 0.0 | 0.0 | 0.00 | 0.30 | 0.30 | 93 | 1015.9 |
| 20260905045603 | 7 | 315 | 0.0 | 0.0 | 0.00 | 0.30 | 0.30 | 93 | 1015.9 |
| 20260905045103 | 7 | 315 | 0.0 | 0.0 | 0.00 | 0.30 | 0.30 | 93 | 1015.8 |
| 20260905044603 | 7 | 315 | 0.0 | 0.0 | 0.00 | 0.30 | 0.30 | 93 | 1015.8 |
| 20260905043603 | 7 | 315 | 0.0 | 0.0 | 0.00 | 0.30 | 0.30 | 93 | 1015.9 |
| 20260905043103 | 8 | 315 | 0.0 | 0.0 | 0.00 | 0.30 | 0.30 | 93 | 1015.9 |
| 20260905042603 | 8 | 315 | 0.0 | 0.0 | 0.00 | 0.30 | 0.30 | 93 | 1016.0 |
| 20260905042103 | 8 | 315 | 0.0 | 0.0 | 0.00 | 0.30 | 0.30 | 92 | 1015.9 |
| 20260905041604 | 8 | 315 | 0.0 | 0.0 | 0.00 | 0.30 | 0.30 | 92 | 1015.9 |
| 20260905040602 | 8 | 315 | 0.0 | 0.0 | 0.03 | 0.30 | 0.30 | 92 | 1015.9 |
| 20260905040104 | 8 | 315 | 0.0 | 0.0 | 0.03 | 0.30 | 0.30 | 92 | 1015.9 |
| 20260905035603 | 8 | 315 | 0.0 | 0.0 | 0.05 | 0.30 | 0.30 | 92 | 1015.9 |
| 20260905035104 | 9 | 315 | 0.0 | 0.0 | 0.05 | 0.30 | 0.30 | 92 | 1016.0 |
| 20260905034603 | 9 | 315 | 0.0 | 0.0 | 0.08 | 0.30 | 0.30 | 91 | 1016.1 |
| 20260905034103 | 9 | 315 | 0.0 | 0.0 | 0.08 | 0.30 | 0.30 | 91 | 1016.0 |
| 20260905033603 | 9 | 315 | 0.0 | 0.0 | 0.10 | 0.30 | 0.30 | 91 | 1016.0 |
| 20260905032603 | 9 | 315 | 0.0 | 0.0 | 0.18 | 0.30 | 0.30 | 91 | 1015.8 |
| 20260905032103 | 9 | 315 | 0.0 | 0.0 | 0.18 | 0.30 | 0.30 | 91 | 1015.6 |
| 20260905031603 | 9 | 315 | 0.0 | 0.0 | 0.18 | 0.30 | 0.30 | 91 | 1015.4 |
| 20260905031104 | 9 | 315 | 0.0 | 0.0 | 0.15 | 0.28 | 0.28 | 91 | 1015.4 |
| 20260905030604 | 9 | 315 | 0.0 | 0.0 | 0.15 | 0.28 | 0.28 | 91 | 1015.4 |
| 20260905030104 | 9 | 315 | 0.0 | 0.0 | 0.15 | 0.28 | 0.28 | 91 | 1015.5 |
| 20260905025604 | 9 | 315 | 0.0 | 0.0 | 0.13 | 0.25 | 0.25 | 90 | 1015.4 |
| 20260905025103 | 9 | 315 | 0.0 | 0.0 | 0.13 | 0.25 | 0.25 | 90 | 1015.4 |
| 20260905024603 | 10 | 315 | 0.0 | 0.0 | 0.10 | 0.23 | 0.23 | 90 | 1015.5 |
| 20260905024103 | 10 | 315 | 0.0 | 0.0 | 0.10 | 0.23 | 0.23 | 89 | 1015.5 |
| 20260905023603 | 10 | 315 | 0.0 | 0.0 | 0.08 | 0.20 | 0.20 | 89 | 1015.4 |